Stations météo

Publicité
Kleine Brogel, Belgique (6479): Température de l'air & dewpoint: 17.11.2017 12:00:00 - 23.11.2017 12:00:00 (CET)Kleine Brogel, Belgique (6479): Vitesse du vent & gusts: 17.11.2017 12:00:00 - 23.11.2017 12:00:00 (CET)Kleine Brogel, Belgique (6479): Direction du vent: 17.11.2017 12:00:00 - 23.11.2017 12:00:00 (CET)Kleine Brogel, Belgique (6479): reduced air pressure: 17.11.2017 12:00:00 - 23.11.2017 12:00:00 (CET)Kleine Brogel, Belgique (6479): visibility: 17.11.2017 12:00:00 - 23.11.2017 12:00:00 (CET)
Date & Time tt [°C] td [°C] ff [km/h] ff [knt] fx [km/h] fx [knt] dd ppp [hPa] vv [km]
23.11.2017 12:00:00 14,8 8,1 35 19 58 31 SW 1001,6 10
23.11.2017 11:00:00 14,3 7,3 34 18 68 37 SW 1001,0 10
23.11.2017 10:00:00 14,5 6,6 37 20 - - SSW 999,8 10
23.11.2017 09:00:00 14,0 5,8 31 17 50 27 SSW 999,0 10
23.11.2017 08:00:00 12,5 4,8 21 11 40 21 SSW 998,5 10
23.11.2017 07:00:00 12,3 4,3 22 12 - - S 998,2 10
23.11.2017 06:00:00 12,5 4,0 24 13 47 25 SSW 998,8 10
23.11.2017 05:00:00 11,8 3,7 24 13 36 19 SSW 999,3 10
23.11.2017 04:00:00 11,5 3,2 21 11 - - SSW 999,9 10
23.11.2017 03:00:00 11,8 3,0 16 9 29 16 SSW 1000,2 10
23.11.2017 02:00:00 11,3 2,9 15 8 29 16 S 1000,6 10
23.11.2017 01:00:00 11,1 2,7 15 8 - - S 1001,2 10
23.11.2017 00:00:00 11,2 2,6 15 8 25 14 S 1001,7 10
22.11.2017 23:00:00 10,0 2,5 13 7 22 12 SSW 1002,3 10
22.11.2017 22:00:00 9,9 2,5 13 7 - - SSW 1002,7 10
22.11.2017 21:00:00 10,3 3,2 15 8 29 16 S 1003,2 10
22.11.2017 20:00:00 10,0 3,8 15 8 25 14 S 1003,7 10
22.11.2017 19:00:00 10,3 4,1 13 7 - - S 1004,2 10
22.11.2017 18:00:00 10,5 4,5 15 8 29 16 SSW 1004,5 10
22.11.2017 17:00:00 11,3 5,3 13 7 32 18 SSW 1005,1 10
22.11.2017 16:00:00 12,0 6,2 13 7 - - S 1005,6 10
22.11.2017 15:00:00 13,1 6,3 13 7 29 16 SSW 1006,1 10
22.11.2017 14:00:00 13,8 6,5 16 9 29 16 SSW 1006,7 10
22.11.2017 13:00:00 13,1 6,5 21 11 - - SW 1007,3 10
22.11.2017 12:00:00 11,6 6,8 21 11 40 21 SSW 1008,0 10
22.11.2017 11:00:00 10,6 6,7 22 12 43 23 SW 1008,3 10
22.11.2017 10:00:00 10,3 6,8 29 16 - - SW 1008,2 10
22.11.2017 09:00:00 10,1 7,0 24 13 36 19 SSW 1008,2 10
22.11.2017 08:00:00 10,3 6,9 21 11 40 21 SSW 1008,2 10
22.11.2017 07:00:00 10,1 7,0 22 12 - - SW 1007,8 10
22.11.2017 06:00:00 10,3 7,0 22 12 36 19 SSW 1008,1 10
22.11.2017 05:00:00 10,5 7,1 22 12 40 21 SW 1008,5 10
22.11.2017 04:00:00 10,3 7,0 26 14 - - SW 1008,7 10
22.11.2017 03:00:00 10,3 7,1 26 14 43 23 SSW 1009,0 10
22.11.2017 02:00:00 10,1 7,1 22 12 40 21 SW 1009,3 10
22.11.2017 01:00:00 9,8 7,1 22 12 - - SW 1010,0 10
22.11.2017 00:00:00 9,6 7,0 24 13 32 18 SW 1010,2 10
21.11.2017 23:00:00 9,5 7,0 21 11 40 21 SW 1010,5 10
21.11.2017 22:00:00 9,6 6,8 22 12 - - SW 1010,8 10
21.11.2017 21:00:00 9,5 7,0 21 11 32 18 SW 1011,1 10
21.11.2017 20:00:00 9,5 7,2 21 11 36 19 SSW 1011,6 10
21.11.2017 19:00:00 9,5 7,3 22 12 - - SW 1011,7 10
21.11.2017 18:00:00 9,6 7,6 21 11 36 19 SW 1012,1 10
21.11.2017 17:00:00 9,8 7,8 24 13 36 19 SW 1012,1 10
21.11.2017 16:00:00 10,0 8,3 26 14 - - SW 1012,3 7
21.11.2017 15:00:00 9,8 8,8 22 12 36 19 SW 1012,6 7
21.11.2017 14:00:00 10,3 9,2 24 13 40 21 SW 1012,7 7
21.11.2017 13:00:00 10,5 9,8 24 13 - - SW 1012,7 7
21.11.2017 12:00:00 10,5 10,1 26 14 40 21 WSW 1013,1 3,0
21.11.2017 11:00:00 10,6 10,3 24 13 40 21 SW 1013,0 3,0
21.11.2017 10:00:00 10,6 10,3 22 12 - - SW 1012,8 2,0
21.11.2017 09:00:00 10,6 10,4 21 11 32 18 SW 1012,3 3,0
21.11.2017 08:00:00 10,6 10,4 18 10 29 16 SW 1012,5 2,5
21.11.2017 07:00:00 10,5 10,3 13 7 - - SW 1012,3 3,0
21.11.2017 06:00:00 10,3 10,1 16 9 25 14 SW 1012,5 2,5
21.11.2017 05:00:00 10,6 10,4 16 9 25 14 SW 1012,7 6
21.11.2017 04:00:00 10,5 10,2 18 10 - - SW 1012,6 7
21.11.2017 03:00:00 10,8 10,5 18 10 32 18 WSW 1012,7 4,6
21.11.2017 02:00:00 10,6 10,3 18 10 29 16 WSW 1012,7 4,9
21.11.2017 01:00:00 10,3 10,1 21 11 - - WSW 1012,7 5
21.11.2017 00:00:00 10,0 9,7 21 11 29 16 WSW 1012,7 9
20.11.2017 23:00:00 9,8 9,6 21 11 36 19 SW 1012,3 4,2
20.11.2017 22:00:00 10,0 9,6 24 13 - - WSW 1012,5 7
20.11.2017 21:00:00 9,6 9,4 26 14 40 21 WSW 1012,6 8
20.11.2017 20:00:00 9,3 9,1 24 13 36 19 WSW 1012,5 3,2
20.11.2017 19:00:00 9,1 8,8 22 12 - - SW 1012,5 2,0
20.11.2017 18:00:00 8,5 8,3 24 13 36 19 SW 1012,6 2,0
20.11.2017 17:00:00 7,6 7,5 22 12 32 18 SW 1013,1 2,5
20.11.2017 16:00:00 7,0 6,7 22 12 - - SW 1013,6 1,8
20.11.2017 15:00:00 6,3 6,1 22 12 36 19 SW 1014,5 2,5
20.11.2017 14:00:00 5,5 5,1 22 12 32 18 SW 1015,7 3,0
20.11.2017 13:00:00 5,0 4,7 16 9 - - SSW 1016,8 2,0
20.11.2017 12:00:00 4,5 4,0 16 9 25 14 SSW 1018,1 3,0
20.11.2017 11:00:00 4,3 3,3 15 8 25 14 SSW 1019,0 10
20.11.2017 10:00:00 3,5 2,6 9 5 - - S 1019,3 10
20.11.2017 09:00:00 3,2 2,3 9 5 18 10 SSW 1020,6 10
20.11.2017 08:00:00 3,4 1,7 11 6 22 12 SW 1021,3 10
20.11.2017 07:00:00 3,7 1,6 15 8 - - SW 1021,0 10
20.11.2017 06:00:00 3,2 1,6 9 5 18 10 SW 1021,2 10
20.11.2017 05:00:00 3,0 1,7 11 6 18 10 SW 1021,3 10
20.11.2017 04:00:00 2,9 1,7 11 6 - - SW 1021,7 10
20.11.2017 03:00:00 3,0 1,7 13 7 18 10 SW 1022,2 10
20.11.2017 02:00:00 3,5 2,0 15 8 22 12 WSW 1022,6 10
20.11.2017 01:00:00 3,5 2,1 13 7 - - SW 1023,0 10
20.11.2017 00:00:00 3,4 2,3 15 8 22 12 SW 1023,1 10
19.11.2017 23:00:00 3,5 2,4 13 7 18 10 WSW 1023,2 10
19.11.2017 22:00:00 4,7 3,2 15 8 - - WSW 1023,1 10
19.11.2017 21:00:00 5,5 3,8 13 7 22 12 WSW 1022,5 10
19.11.2017 20:00:00 5,5 3,8 13 7 22 12 W 1022,2 10
19.11.2017 19:00:00 5,6 4,2 9 5 - - W 1022,0 10
19.11.2017 18:00:00 6,0 4,4 11 6 25 14 W 1021,3 9
19.11.2017 17:00:00 6,6 4,1 15 8 25 14 W 1020,8 10
19.11.2017 16:00:00 7,4 3,8 16 9 - - W 1020,5 10
19.11.2017 15:00:00 7,8 3,6 21 11 32 18 W 1020,1 10
19.11.2017 14:00:00 7,4 4,9 15 8 40 21 W 1020,0 10
19.11.2017 13:00:00 8,3 4,8 15 8 - - W 1020,0 10
19.11.2017 12:00:00 7,8 4,2 18 10 25 14 W 1019,7 10
19.11.2017 11:00:00 6,7 4,3 21 11 29 16 WSW 1019,6 10
19.11.2017 10:00:00 5,3 3,5 16 9 - - WSW 1019,1 10
19.11.2017 09:00:00 4,1 3,0 13 7 22 12 WSW 1018,7 10
19.11.2017 08:00:00 3,6 2,5 15 8 22 12 WSW 1018,2 10
19.11.2017 07:00:00 3,5 2,2 13 7 - - WSW 1017,8 10
19.11.2017 06:00:00 3,2 2,3 11 6 14 8 WSW 1017,6 10
19.11.2017 05:00:00 3,0 2,3 9 5 11 6 WSW 1017,2 10
19.11.2017 04:00:00 4,5 3,7 8 4 - - W 1017,1 10
19.11.2017 03:00:00 5,0 4,2 4 2 14 8 - 1017,0 10
19.11.2017 02:00:00 5,4 4,8 8 4 14 8 W 1016,6 10
19.11.2017 01:00:00 5,9 4,7 5 3 - - NW 1016,7 10
19.11.2017 00:00:00 5,7 5,1 15 8 18 10 WSW 1016,3 10
18.11.2017 23:00:00 6,0 5,2 13 7 22 12 WSW 1016,7 10
18.11.2017 22:00:00 6,6 6,1 15 8 - - WSW 1017,1 10
18.11.2017 21:00:00 6,4 5,1 9 5 25 14 WNW 1017,5 7
18.11.2017 20:00:00 6,8 5,3 15 8 25 14 SW 1017,6 10
18.11.2017 19:00:00 6,4 4,6 16 9 - - SW 1018,0 10
18.11.2017 18:00:00 6,5 4,8 15 8 29 16 WSW 1018,3 10
18.11.2017 17:00:00 6,5 4,8 18 10 29 16 WSW 1018,7 10
18.11.2017 16:00:00 6,9 3,5 22 12 - - WSW 1018,7 10
18.11.2017 15:00:00 6,9 2,6 28 15 36 19 WSW 1019,1 10
18.11.2017 14:00:00 6,6 2,8 21 11 36 19 SW 1019,7 10
18.11.2017 13:00:00 6,0 1,5 26 14 - - SW 1020,6 10
18.11.2017 12:00:00 6,0 1,4 24 13 32 18 WSW 1021,2 10
18.11.2017 11:00:00 4,5 1,4 16 9 25 14 SW 1021,8 10
18.11.2017 10:00:00 3,8 1,3 18 10 - - SW 1022,2 10
18.11.2017 09:00:00 3,5 1,2 15 8 22 12 SW 1022,8 10
18.11.2017 08:00:00 3,2 1,2 15 8 18 10 SW 1022,7 10
18.11.2017 07:00:00 3,0 1,1 15 8 - - SW 1023,0 10
18.11.2017 06:00:00 3,0 1,0 13 7 18 10 SW 1023,5 10
18.11.2017 05:00:00 2,5 1,1 11 6 14 8 SW 1024,0 10
18.11.2017 04:00:00 2,0 1,3 11 6 - - SW 1024,5 10
18.11.2017 03:00:00 2,0 1,2 5 3 7 4 SSW 1025,2 10
18.11.2017 02:00:00 1,8 0,9 8 4 11 6 SW 1025,7 10
18.11.2017 01:00:00 2,2 1,5 4 2 - - N 1026,2 12
18.11.2017 00:00:00 1,3 0,6 2 1 4 2 - 1026,5 9
17.11.2017 23:00:00 1,5 0,8 4 2 7 4 - 1026,7 7
17.11.2017 22:00:00 2,2 1,4 5 3 - - SW 1027,0 10
17.11.2017 21:00:00 1,7 1,3 5 3 7 4 WSW 1027,2 10
17.11.2017 20:00:00 1,3 1,1 2 1 4 2 - 1027,2 10
17.11.2017 19:00:00 2,4 1,7 4 2 - - - 1027,5 10
17.11.2017 18:00:00 2,9 1,9 0 0 11 6 N 1027,4 10
17.11.2017 17:00:00 4,5 2,6 2 1 7 4 - 1027,5 10
17.11.2017 16:00:00 7,0 2,2 4 2 - - - 1027,7 10
17.11.2017 15:00:00 9,3 1,7 4 2 11 6 - 1027,7 10
17.11.2017 14:00:00 9,5 0,7 4 2 14 8 - 1028,2 10
17.11.2017 13:00:00 10,3 1,0 4 2 - - - 1028,0 10
17.11.2017 12:00:00 10,1 1,5 5 3 7 4 NE 1028,4 10

tt = Température de l'air
td = dewpoint
ff = Vitesse du vent
fx = gusts
dd = Direction du vent
ppp = reduced air pressure
vv = visibility

stations d'obs. à proximité